DW8851 Weather Reports


Display with metric or nautical units.
time (UTC)temp
F
wind
direction
speed
MPH
gust
MPH
rain 1hr
in
rain 24hr
in
rain mn
in
humidity
%
barometer
mb
20200409041633 45 242 0.0 1.0 0.00 0.13 0.00 81 1003.3
20200409041033 45 242 0.0 2.0 0.00 0.13 0.00 81 1003.4
20200409040529 45 242 0.0 2.0 0.00 0.13 0.00 81 1003.5
20200409040046 45 242 0.0 2.0 0.00 0.13 0.00 80 1003.5
20200409035540 46 242 0.0 1.0 0.00 0.13 0.13 78 1003.6
20200409035036 46 242 0.0 1.0 0.00 0.13 0.13 78 1003.5
20200409033526 46 242 0.0 1.0 0.00 0.13 0.13 79 1003.8
20200409033103 46 242 0.0 1.0 0.00 0.13 0.13 82 1003.8
20200409032526 46 242 0.0 1.0 0.00 0.13 0.13 81 1003.8
20200409032036 46 242 0.0 1.0 0.00 0.13 0.13 78 1003.9
20200409031555 47 242 0.0 0.0 0.00 0.13 0.13 74 1003.8
20200409031035 47 242 0.0 1.0 0.00 0.13 0.13 75 1003.6
20200409030525 47 242 0.0 1.0 0.00 0.13 0.13 73 1003.7
20200409030053 48 242 0.0 1.0 0.00 0.13 0.13 71 1003.7
20200409025525 48 242 0.0 1.0 0.00 0.13 0.13 71 1003.8
20200409025025 48 242 0.0 0.0 0.00 0.13 0.13 71 1003.8
20200409024559 48 242 0.0 0.0 0.00 0.13 0.13 71 1003.8
20200409024033 48 242 0.0 0.0 0.00 0.13 0.13 71 1003.7
20200409023524 48 242 0.0 1.0 0.00 0.13 0.13 70 1003.8
20200409023033 49 242 0.0 1.0 0.00 0.13 0.13 69 1003.9
20200409022529 49 242 0.0 0.0 0.00 0.13 0.13 68 1003.8
20200409022023 49 242 0.0 1.0 0.00 0.13 0.13 68 1003.8
20200409021555 50 242 0.0 1.0 0.00 0.13 0.13 67 1003.8
20200409021023 49 242 0.0 1.0 0.00 0.13 0.13 67 1003.7
20200409020522 50 241 0.0 0.0 0.00 0.13 0.13 66 1003.6
20200409020120 50 241 0.0 1.0 0.00 0.13 0.13 64 1003.7
20200409015522 51 241 0.0 2.0 0.00 0.13 0.13 63 1003.7
20200409015023 51 241 0.0 3.0 0.00 0.13 0.13 63 1003.7
20200409014528 51 229 0.0 3.0 0.00 0.13 0.13 64 1003.8
20200409014022 51 225 1.0 2.0 0.00 0.13 0.13 64 1003.8
20200409013522 51 266 0.0 2.0 0.00 0.13 0.13 63 1004.0
20200409013043 51 266 0.0 2.0 0.00 0.13 0.13 64 1004.1
20200409012535 51 265 0.0 2.0 0.00 0.13 0.13 63 1004.0
20200409012021 51 262 0.0 2.0 0.00 0.13 0.13 63 1003.9
20200409011530 51 263 0.0 2.0 0.00 0.13 0.13 63 1003.9
20200409011021 52 268 0.0 2.0 0.00 0.13 0.13 63 1004.0
20200409010522 52 247 0.0 3.0 0.00 0.13 0.13 63 1003.8
20200409010042 52 252 1.0 4.0 0.00 0.13 0.13 62 1003.7
20200409005520 52 279 0.0 4.0 0.00 0.13 0.13 62 1003.5
20200409005020 52 246 0.0 2.0 0.00 0.13 0.13 63 1003.5
20200409004532 52 240 0.0 4.0 0.00 0.13 0.13 62 1003.4
20200409004019 52 260 1.0 4.0 0.00 0.13 0.13 62 1003.2
20200409003519 52 243 0.0 3.0 0.00 0.13 0.13 61 1003.0
20200409003054 52 260 0.0 4.0 0.00 0.13 0.13 62 1003.0
20200409002518 52 272 1.0 4.0 0.00 0.13 0.13 62 1002.9
20200409002018 53 272 0.0 2.0 0.00 0.13 0.13 62 1002.8
20200409001528 53 272 0.0 2.0 0.00 0.13 0.13 62 1002.7
20200409001034 53 272 0.0 2.0 0.00 0.13 0.13 60 1002.7
20200409000518 53 272 0.0 3.0 0.00 0.13 0.13 60 1002.7
20200409000103 54 272 1.0 3.0 0.00 0.13 0.13 59 1002.7
20200408235517 54 281 0.0 4.0 0.00 0.13 0.13 59 1002.7
20200408235018 54 275 0.0 5.0 0.00 0.13 0.13 58 1002.5
20200408234534 54 286 0.0 2.0 0.00 0.13 0.13 59 1002.4
20200408234020 55 286 0.0 2.0 0.00 0.13 0.13 59 1002.3
20200408233517 55 286 0.0 2.0 0.00 0.13 0.13 58 1002.2
20200408233038 56 286 0.0 2.0 0.00 0.13 0.13 57 1002.2
20200408232517 56 286 0.0 1.0 0.00 0.13 0.13 58 1002.1
20200408232017 56 286 0.0 2.0 0.00 0.13 0.13 58 1002.2
20200408231540 56 286 0.0 2.0 0.00 0.13 0.13 59 1002.1
20200408231021 56 285 0.0 2.0 0.00 0.13 0.13 60 1002.1
20200408230531 56 15 0.0 1.0 0.00 0.13 0.13 61 1002.0
20200408230040 56 15 0.0 1.0 0.00 0.13 0.13 60 1002.0
20200408225516 57 15 0.0 1.0 0.00 0.13 0.13 59 1001.9
20200408225015 57 15 0.0 2.0 0.00 0.13 0.13 56 1001.9
20200408224549 57 15 0.0 2.0 0.00 0.13 0.13 56 1002.0
20200408224015 57 15 0.0 1.0 0.00 0.13 0.13 56 1001.8
20200408223514 57 15 0.0 4.0 0.00 0.13 0.13 59 1002.0
20200408223032 57 15 1.0 4.0 0.00 0.13 0.13 58 1001.9
20200408222517 57 202 0.0 2.0 0.00 0.13 0.13 58 1001.8
20200408222018 57 202 0.0 3.0 0.00 0.13 0.13 57 1001.7
20200408221516 57 202 1.0 3.0 0.00 0.13 0.13 58 1001.7
20200408221018 57 152 1.0 3.0 0.00 0.13 0.13 60 1001.6
20200408220515 57 122 0.0 2.0 0.00 0.13 0.13 59 1001.5
20200408220032 57 119 0.0 2.0 0.00 0.13 0.13 57 1001.5
20200408215526 57 104 0.0 3.0 0.00 0.13 0.13 61 1001.4
20200408215011 57 104 0.0 3.0 0.00 0.13 0.13 59 1001.3
20200408214518 57 131 1.0 2.0 0.00 0.13 0.13 58 1001.3
20200408214009 56 131 0.0 2.0 0.00 0.13 0.13 57 1001.3
20200408213509 57 131 0.0 3.0 0.00 0.13 0.13 59 1001.3
20200408213010 57 126 0.0 2.0 0.00 0.13 0.13 58 1001.2
20200408212508 57 299 0.0 2.0 0.00 0.13 0.13 58 1001.2
20200408212009 56 299 0.0 3.0 0.00 0.13 0.13 58 1001.3
20200408211508 56 277 0.0 2.0 0.00 0.13 0.13 60 1001.2
20200408211008 56 323 0.0 3.0 0.00 0.13 0.13 60 1001.2
20200408210013 57 270 0.0 5.0 0.00 0.13 0.13 59 1001.3
20200408205507 57 268 1.0 4.0 0.00 0.13 0.13 59 1001.3
20200408205008 56 276 0.0 4.0 0.00 0.13 0.13 60 1001.3
20200408204508 56 282 2.0 4.0 0.00 0.13 0.13 60 1001.4
20200408204009 56 298 0.0 3.0 0.00 0.13 0.13 59 1001.4
20200408203506 56 347 1.0 4.0 0.00 0.13 0.13 58 1001.3
20200408203006 56 271 1.0 4.0 0.00 0.13 0.13 58 1001.5
20200408202506 56 321 2.0 5.0 0.00 0.13 0.13 57 1001.4
20200408202005 56 338 2.0 5.0 0.00 0.13 0.13 58 1001.4
20200408201513 56 342 1.0 5.0 0.00 0.13 0.13 61 1001.4
20200408201005 56 281 1.0 4.0 0.00 0.13 0.13 60 1001.3
20200408200506 56 265 1.0 4.0 0.00 0.13 0.13 60 1001.3
20200408200007 56 324 1.0 4.0 0.00 0.13 0.13 61 1001.1
20200408195505 56 255 1.0 3.0 0.00 0.13 0.13 60 1001.0
20200408195005 56 234 1.0 5.0 0.00 0.13 0.13 60 1000.9
20200408194509 56 328 2.0 5.0 0.00 0.13 0.13 59 1000.9
20200408194004 56 319 2.0 5.0 0.00 0.13 0.13 58 1000.9
20200408193504 56 258 1.0 8.0 0.00 0.13 0.13 59 1000.8
20200408193015 56 337 2.0 7.0 0.00 0.13 0.13 59 1000.8
20200408192504 56 308 2.0 4.0 0.00 0.13 0.13 56 1000.8
20200408192003 56 343 1.0 4.0 0.00 0.13 0.13 55 1000.8
20200408191537 56 302 2.0 4.0 0.00 0.13 0.13 58 1000.8
20200408190507 56 294 1.0 5.0 0.00 0.13 0.13 55 1000.9
20200408185505 57 336 2.0 4.0 0.00 0.13 0.13 53 1000.8
20200408185002 57 322 2.0 5.0 0.00 0.13 0.13 51 1000.6
20200408184500 56 17 1.0 5.0 0.00 0.13 0.13 54 1000.7
20200408183604 55 323 2.0 4.0 0.00 0.13 0.13 57 1001.1
20200408183304 55 313 3.0 4.0 0.00 0.13 0.13 55 1001.1
20200408182559 56 316 1.0 6.0 0.00 0.13 0.13 56 1001.1
20200408182126 56 334 2.0 6.0 0.00 0.13 0.13 56 1001.2
20200408181814 56 49 1.0 4.0 0.00 0.13 0.13 54 1001.1
20200408181058 56 151 1.0 4.0 0.00 0.13 0.13 59 1001.1
20200408180605 56 130 1.0 4.0 0.00 0.13 0.13 56 1001.1
20200408180120 56 113 1.0 4.0 0.00 0.13 0.13 59 1001.2
20200408175556 55 360 2.0 4.0 0.00 0.13 0.13 59 1001.3
20200408175102 55 313 2.0 4.0 0.00 0.13 0.13 58 1001.5
20200408174639 54 86 1.0 4.0 0.00 0.13 0.13 58 1001.5
20200408174055 53 292 0.0 4.0 0.00 0.13 0.13 61 1001.5
20200408173554 53 348 1.0 4.0 0.00 0.13 0.13 58 1001.5
20200408173054 54 80 1.0 4.0 0.00 0.13 0.13 59 1001.4
20200408172554 54 346 1.0 4.0 0.00 0.13 0.13 58 1001.5
20200408172054 54 271 0.0 5.0 0.00 0.13 0.13 61 1001.5
20200408171647 54 284 1.0 4.0 0.00 0.13 0.13 63 1001.5
20200408171054 54 316 2.0 4.0 0.00 0.13 0.13 61 1001.4
20200408170605 54 220 1.0 4.0 0.00 0.13 0.13 62 1001.4
20200408170126 54 51 2.0 4.0 0.00 0.13 0.13 66 1001.4
20200408165557 53 346 1.0 4.0 0.00 0.13 0.13 60 1001.6
20200408165105 53 271 2.0 4.0 0.00 0.13 0.13 64 1001.7
20200408164643 52 284 1.0 4.0 0.00 0.13 0.13 66 1001.6
20200408164050 52 346 1.0 4.0 0.00 0.13 0.13 63 1001.6
20200408163549 52 277 2.0 4.0 0.00 0.13 0.13 64 1001.7
20200408163147 52 331 2.0 4.0 0.00 0.13 0.13 65 1001.8
20200408162601 52 355 1.0 4.0 0.00 0.13 0.13 65 1001.7
20200408162048 52 313 1.0 4.0 0.00 0.13 0.13 66 1001.6
20200408161613 51 331 1.0 3.0 0.00 0.13 0.13 68 1001.7
20200408161049 51 287 1.0 4.0 0.00 0.13 0.13 70 1001.7
20200408160548 50 337 1.0 4.0 0.00 0.13 0.13 68 1001.7
20200408160123 51 334 1.0 3.0 0.00 0.13 0.13 68 1001.7
20200408155047 51 290 1.0 6.0 0.00 0.13 0.13 67 1001.7
20200408154626 51 355 3.0 6.0 0.00 0.13 0.13 67 1001.7
20200408154052 51 284 1.0 3.0 0.00 0.13 0.13 67 1001.8
20200408153545 51 328 1.0 4.0 0.00 0.13 0.13 67 1001.7
20200408153154 50 90 2.0 4.0 0.00 0.13 0.13 68 1001.5
20200408152604 50 44 1.0 3.0 0.00 0.13 0.13 70 1001.6
20200408152052 50 338 1.0 4.0 0.00 0.13 0.13 72 1001.7
20200408151549 50 82 1.0 4.0 0.00 0.13 0.13 71 1001.6
20200408151105 49 360 0.0 4.0 0.00 0.13 0.13 74 1001.6
20200408150605 49 346 0.0 3.0 0.00 0.13 0.13 73 1001.8
20200408150139 49 340 1.0 5.0 0.00 0.13 0.13 73 1001.9
20200408145540 49 333 1.0 5.0 0.00 0.13 0.13 73 1002.1
20200408145040 49 51 1.0 4.0 0.00 0.13 0.13 74 1001.9
20200408144634 48 340 1.0 4.0 0.00 0.13 0.13 74 1001.9
20200408144046 48 344 1.0 4.0 0.00 0.13 0.13 74 1001.9
20200408143559 48 327 1.0 2.0 0.00 0.13 0.13 74 1001.8
20200408143101 48 64 0.0 3.0 0.00 0.13 0.13 76 1001.7
20200408142554 48 276 0.0 3.0 0.00 0.13 0.13 75 1001.8
20200408142036 48 73 0.0 3.0 0.00 0.13 0.13 78 1001.8
20200408141619 47 5 1.0 4.0 0.00 0.13 0.13 80 1001.8
20200408141034 47 349 0.0 5.0 0.00 0.13 0.13 82 1001.9
20200408140535 47 311 1.0 4.0 0.00 0.13 0.13 82 1001.7
20200408140057 47 355 1.0 4.0 0.00 0.13 0.13 82 1001.8
20200408135533 47 9 0.0 4.0 0.00 0.13 0.13 82 1001.9
20200408135033 47 355 1.0 4.0 0.00 0.13 0.13 83 1001.8
20200408134552 47 338 0.0 3.0 0.00 0.13 0.13 81 1001.6
20200408134033 47 330 1.0 3.0 0.00 0.13 0.13 83 1001.6
20200408133532 47 355 0.0 3.0 0.00 0.13 0.13 83 1001.4
20200408133128 47 321 1.0 3.0 0.00 0.13 0.13 84 1001.5
20200408132531 47 13 0.0 2.0 0.00 0.13 0.13 85 1001.4
20200408131617 46 13 0.0 3.0 0.00 0.13 0.13 86 1001.5
20200408131028 46 14 0.0 5.0 0.00 0.13 0.13 85 1001.6
20200408130533 46 317 1.0 4.0 0.00 0.13 0.13 86 1001.5
20200408130109 46 337 0.0 3.0 0.00 0.13 0.13 86 1001.4
20200408125526 46 337 1.0 3.0 0.00 0.13 0.13 86 1001.4
20200408125026 46 38 0.0 2.0 0.00 0.13 0.13 87 1001.3
20200408124535 46 346 0.0 3.0 0.00 0.13 0.13 87 1001.3
20200408124030 46 346 1.0 5.0 0.00 0.13 0.13 87 1001.4
20200408123525 46 9 1.0 5.0 0.00 0.13 0.13 89 1001.2
20200408123028 46 350 0.0 3.0 0.00 0.13 0.13 89 1001.2
20200408122528 46 95 0.0 3.0 0.00 0.13 0.13 90 1001.2
20200408122035 46 317 0.0 3.0 0.00 0.13 0.13 90 1001.3
20200408121537 45 346 1.0 3.0 0.00 0.13 0.13 91 1001.4
20200408121026 45 338 0.0 3.0 0.00 0.13 0.13 92 1001.3
20200408120535 45 338 1.0 3.0 0.00 0.13 0.13 92 1001.2
20200408120047 46 346 0.0 3.0 0.00 0.13 0.13 93 1001.1
20200408115520 45 346 0.0 3.0 0.00 0.13 0.13 93 1001.1
20200408115032 45 311 0.0 3.0 0.01 0.13 0.13 93 1000.9
20200408114529 45 311 1.0 3.0 0.01 0.13 0.13 93 1001.0
20200408114017 45 341 0.0 2.0 0.01 0.13 0.13 93 1001.0
20200408113528 45 341 0.0 3.0 0.01 0.13 0.13 93 1001.0
20200408113036 45 304 0.0 2.0 0.01 0.13 0.13 93 1001.0
20200408112515 45 291 0.0 2.0 0.01 0.13 0.13 93 1000.9
20200408112020 45 346 0.0 3.0 0.01 0.13 0.13 93 1000.8
20200408111556 45 325 0.0 3.0 0.02 0.13 0.13 93 1000.7
20200408111015 45 11 0.0 5.0 0.02 0.13 0.13 93 1000.8
20200408110530 45 335 1.0 3.0 0.02 0.13 0.13 93 1000.8
20200408110017 45 5 0.0 4.0 0.02 0.13 0.13 93 1000.7
20200408105521 45 9 1.0 4.0 0.02 0.13 0.13 93 1000.6
20200408105020 45 328 0.0 2.0 0.01 0.12 0.12 93 1000.5
20200408104550 45 328 0.0 3.0 0.01 0.12 0.12 93 1000.3
20200408104012 45 327 0.0 3.0 0.02 0.12 0.12 93 1000.1
20200408103516 45 320 0.0 3.0 0.02 0.12 0.12 92 1000.3
20200408103012 46 355 0.0 3.0 0.02 0.12 0.12 92 1000.2
20200408102510 46 317 1.0 3.0 0.02 0.12 0.12 92 1000.2
20200408102010 46 317 1.0 3.0 0.02 0.12 0.12 92 1000.1
20200408101548 46 327 0.0 2.0 0.01 0.11 0.11 92 1000.0
20200408101015 46 327 0.0 4.0 0.01 0.11 0.11 91 1000.2
20200408100508 46 328 2.0 4.0 0.01 0.11 0.11 92 1000.0
20200408100018 46 329 0.0 1.0 0.02 0.11 0.11 91 1000.0
20200408095506 46 329 0.0 1.0 0.02 0.11 0.11 91 1000.1
20200408095009 46 329 0.0 1.0 0.02 0.11 0.11 91 1000.4
20200408094506 46 329 0.0 1.0 0.02 0.11 0.11 91 1000.7
20200408094010 46 328 0.0 1.0 0.01 0.10 0.10 91 1000.4
20200408093506 46 328 0.0 1.0 0.01 0.10 0.10 91 1000.3
20200408093006 46 328 0.0 2.0 0.01 0.10 0.10 91 1000.4
20200408092612 46 328 0.0 2.0 0.01 0.10 0.10 90 1000.3
20200408092100 46 328 0.0 2.0 0.01 0.10 0.10 90 1000.4
20200408091716 46 328 0.0 1.0 0.01 0.10 0.10 90 1000.4
20200408091105 46 328 0.0 1.0 0.02 0.10 0.10 89 1000.5
20200408090603 46 328 0.0 1.0 0.02 0.10 0.10 89 1000.4
20200408090200 47 328 0.0 1.0 0.02 0.09 0.09 88 1000.4
20200408085604 47 328 0.0 2.0 0.02 0.09 0.09 88 1000.5
20200408085058 47 328 1.0 2.0 0.03 0.09 0.09 88 1000.5
20200408084603 47 334 0.0 2.0 0.03 0.09 0.09 88 1000.5
20200408084057 47 349 0.0 2.0 0.04 0.09 0.09 89 1000.4
20200408083606 47 332 0.0 2.0 0.04 0.09 0.09 89 1000.4
20200408083131 46 332 0.0 2.0 0.04 0.09 0.09 89 1000.4
20200408082600 46 332 1.0 2.0 0.04 0.09 0.09 89 1000.4
20200408082055 46 333 0.0 2.0 0.04 0.09 0.09 89 1000.4
20200408081852 47 333 0.0 2.0 0.04 0.09 0.09 89 1000.5
20200408081100 47 333 0.0 3.0 0.03 0.08 0.08 89 1000.7
20200408080642 47 324 0.0 3.0 0.03 0.08 0.08 89 1000.9
20200408080128 47 355 0.0 2.0 0.02 0.07 0.07 89 1000.9
20200408075550 47 355 0.0 2.0 0.02 0.07 0.07 88 1001.1
20200408075049 47 348 0.0 3.0 0.01 0.06 0.06 88 1001.4
20200408074604 47 347 1.0 4.0 0.01 0.06 0.06 87 1001.4
20200408074046 47 326 1.0 4.0 0.00 0.05 0.05 86 1001.5
20200408073551 47 340 0.0 2.0 0.01 0.05 0.05 86 1001.5
20200408072545 47 340 0.0 2.0 0.01 0.05 0.05 86 1001.6
20200408072049 47 340 0.0 2.0 0.01 0.05 0.05 86 1001.9
20200408071551 47 9 0.0 1.0 0.02 0.05 0.05 86 1002.2
20200408071043 47 9 0.0 2.0 0.02 0.05 0.05 86 1002.0
20200408070543 47 9 0.0 2.0 0.02 0.05 0.05 86 1002.0
20200408070047 47 13 0.0 2.0 0.02 0.05 0.05 86 1002.1
20200408065542 47 5 0.0 2.0 0.03 0.05 0.05 85 1002.0
20200408065048 47 9 0.0 2.0 0.04 0.05 0.05 85 1002.2
20200408064818 47 246 0.0 2.0 0.04 0.05 0.05 85 1002.2
20200408064039 47 246 0.0 1.0 0.05 0.05 0.05 84 1002.3
20200408063539 47 246 0.0 1.0 0.04 0.04 0.04 84 1002.5
20200408063043 47 246 0.0 1.0 0.04 0.04 0.04 83 1002.6
20200408062537 48 246 0.0 1.0 0.04 0.04 0.04 82 1002.7
20200408062038 48 246 0.0 1.0 0.04 0.04 0.04 81 1002.9
20200408061545 48 246 0.0 1.0 0.03 0.03 0.03 80 1002.9
20200408061037 48 246 0.0 1.0 0.03 0.03 0.03 78 1003.2
20200408060535 48 246 0.0 1.0 0.03 0.03 0.03 75 1003.4
20200408060110 48 246 0.0 1.0 0.03 0.03 0.03 74 1003.7
20200408055548 48 246 0.0 1.0 0.02 0.02 0.02 75 1003.6
20200408055030 49 246 0.0 0.0 0.01 0.01 0.01 74 1003.7
20200408054549 49 246 0.0 0.0 0.01 0.01 0.01 74 1003.7
20200408054028 49 246 0.0 2.0 0.00 0.00 0.00 75 1003.7
20200408053527 50 246 0.0 2.0 0.00 0.00 0.00 75 1003.7
20200408053110 50 246 1.0 2.0 0.00 0.00 0.00 72 1003.7
20200408052526 50 246 0.0 3.0 0.00 0.00 0.00 70 1003.6
20200408052031 50 188 0.0 2.0 0.00 0.00 0.00 64 1003.6
20200408051546 51 188 0.0 1.0 0.00 0.00 0.00 65 1003.6
20200408051023 51 188 0.0 1.0 0.00 0.00 0.00 66 1003.8
20200408050534 51 188 0.0 2.0 0.00 0.00 0.00 61 1003.8
20200408050053 52 188 0.0 2.0 0.00 0.00 0.00 57 1003.8
20200408045533 53 187 0.0 1.0 0.00 0.00 0.00 54 1003.8
20200408045018 53 187 0.0 1.0 0.00 0.00 0.00 51 1004.0
20200408044521 53 187 0.0 0.0 0.00 0.00 0.00 49 1004.0
20200408044033 54 187 0.0 3.0 0.00 0.00 0.00 49 1004.1
20200408043519 54 187 1.0 3.0 0.00 0.00 0.00 48 1004.3
20200408043107 54 215 1.0 4.0 0.00 0.00 0.00 49 1004.3
20200408042518 54 223 2.0 4.0 0.00 0.00 0.00 48 1004.4
20200408042016 54 173 0.0 3.0 0.00 0.00 0.00 49 1004.3